| time (UTC) | temp F | wind direction | speed MPH | gust MPH | rain 1hr in | rain 24hr in | rain mn in | humidity % | barometer mb |
| 20260510170051 | 78 | 261 | 3.0 | 0.0 | 0.00 | 0.00 | 0.00 | 51 | 1012.5 |
| 20260510164602 | 77 | 234 | 4.0 | 0.0 | 0.00 | 0.00 | 0.00 | 50 | 1012.5 |
| 20260510163106 | 76 | 230 | 4.0 | 0.0 | 0.00 | 0.00 | 0.00 | 52 | 1012.7 |
| 20260510161539 | 75 | 281 | 1.0 | 0.0 | 0.00 | 0.00 | 0.00 | 55 | 1012.5 |
| 20260510160034 | 75 | 232 | 2.0 | 0.0 | 0.00 | 0.00 | 0.00 | 55 | 1012.7 |
| 20260510154531 | 74 | 265 | 3.0 | 0.0 | 0.00 | 0.00 | 0.00 | 57 | 1012.7 |
| 20260510153025 | 73 | 226 | 3.0 | 0.0 | 0.00 | 0.00 | 0.00 | 58 | 1012.7 |
| 20260510151523 | 72 | 263 | 5.0 | 0.0 | 0.00 | 0.00 | 0.00 | 58 | 1012.7 |
| 20260510150017 | 71 | 318 | 4.0 | 0.0 | 0.00 | 0.00 | 0.00 | 59 | 1012.7 |
| 20260510144514 | 70 | 251 | 4.0 | 0.0 | 0.00 | 0.00 | 0.00 | 58 | 1012.5 |
| 20260510143013 | 68 | 208 | 4.0 | 0.0 | 0.00 | 0.00 | 0.00 | 40 | 1012.3 |
| 20260510141503 | 66 | 292 | 2.0 | 0.0 | 0.00 | 0.00 | 0.00 | 100 | 1012.2 |
| 20260510140058 | 63 | 279 | 2.0 | 0.0 | 0.00 | 0.00 | 0.00 | 100 | 1012.3 |
| 20260510134557 | 62 | 257 | 2.0 | 0.0 | 0.00 | 0.00 | 0.00 | 100 | 1012.5 |
| 20260510133049 | 60 | 198 | 1.0 | 0.0 | 0.00 | 0.00 | 0.00 | 100 | 1012.4 |
| 20260510131553 | 59 | 250 | 1.0 | 0.0 | 0.00 | 0.00 | 0.00 | 100 | 1012.5 |
| 20260510130042 | 58 | 30 | 1.0 | 0.0 | 0.00 | 0.00 | 0.00 | 100 | 1012.3 |
| 20260510124537 | 57 | 254 | 0.0 | 0.0 | 0.00 | 0.00 | 0.00 | 100 | 1012.6 |
| 20260510123032 | 56 | 254 | 0.0 | 0.0 | 0.00 | 0.00 | 0.00 | 100 | 1012.8 |
| 20260510121527 | 55 | 324 | 0.0 | 0.0 | 0.00 | 0.00 | 0.00 | 100 | 1012.6 |
| 20260510120023 | 54 | 331 | 0.0 | 0.0 | 0.00 | 0.00 | 0.00 | 100 | 1012.6 |
| 20260510114521 | 54 | 331 | 2.0 | 0.0 | 0.00 | 0.00 | 0.00 | 100 | 1012.3 |
| 20260510113014 | 53 | 329 | 1.0 | 0.0 | 0.00 | 0.00 | 0.00 | 100 | 1011.9 |
| 20260510111509 | 52 | 326 | 0.0 | 0.0 | 0.00 | 0.00 | 0.00 | 100 | 1011.8 |
| 20260510110006 | 51 | 326 | 0.0 | 0.0 | 0.00 | 0.00 | 0.00 | 100 | 1011.6 |
| 20260510104501 | 51 | 326 | 0.0 | 0.0 | 0.00 | 0.00 | 0.00 | 100 | 1011.4 |
| 20260510103057 | 51 | 326 | 0.0 | 0.0 | 0.00 | 0.00 | 0.00 | 100 | 1011.1 |
| 20260510101555 | 51 | 326 | 0.0 | 0.0 | 0.00 | 0.00 | 0.00 | 100 | 1010.9 |
| 20260510100107 | 52 | 326 | 0.0 | 0.0 | 0.00 | 0.00 | 0.00 | 100 | 1010.7 |
| 20260510094555 | 52 | 326 | 0.0 | 0.0 | 0.00 | 0.00 | 0.00 | 100 | 1010.8 |
| 20260510093039 | 52 | 326 | 1.0 | 0.0 | 0.00 | 0.00 | 0.00 | 100 | 1010.8 |
| 20260510091535 | 52 | 308 | 1.0 | 0.0 | 0.00 | 0.00 | 0.00 | 100 | 1010.7 |
| 20260510090041 | 52 | 360 | 0.0 | 0.0 | 0.00 | 0.00 | 0.00 | 100 | 1010.5 |
| 20260510084527 | 52 | 360 | 0.0 | 0.0 | 0.00 | 0.00 | 0.00 | 100 | 1010.6 |
| 20260510083026 | 52 | 360 | 0.0 | 0.0 | 0.00 | 0.00 | 0.00 | 100 | 1010.5 |
| 20260510081517 | 52 | 360 | 0.0 | 0.0 | 0.00 | 0.00 | 0.00 | 100 | 1010.4 |
| 20260510080024 | 53 | 15 | 0.0 | 0.0 | 0.00 | 0.00 | 0.00 | 100 | 1010.3 |
| 20260510074511 | 53 | 53 | 0.0 | 0.0 | 0.00 | 0.00 | 0.00 | 100 | 1009.9 |
| 20260510073004 | 53 | 53 | 0.0 | 0.0 | 0.00 | 0.00 | 0.00 | 100 | 1009.8 |
| 20260510071600 | 54 | 53 | 0.0 | 0.0 | 0.00 | 0.00 | 0.00 | 100 | 1009.7 |
| 20260510070057 | 54 | 53 | 0.0 | 0.0 | 0.00 | 0.00 | 0.00 | 100 | 1009.8 |
| 20260510064553 | 54 | 54 | 0.0 | 0.0 | 0.00 | 0.00 | 0.00 | 100 | 1009.6 |
| 20260510063050 | 55 | 54 | 0.0 | 0.0 | 0.00 | 0.00 | 0.00 | 100 | 1009.5 |
| 20260510061544 | 55 | 54 | 0.0 | 0.0 | 0.00 | 0.00 | 0.00 | 100 | 1009.5 |
| 20260510060039 | 55 | 54 | 0.0 | 0.0 | 0.00 | 0.00 | 0.00 | 100 | 1009.4 |
| 20260510054535 | 56 | 54 | 0.0 | 0.0 | 0.00 | 0.00 | 0.00 | 100 | 1009.8 |
| 20260510053029 | 56 | 54 | 0.0 | 0.0 | 0.00 | 0.00 | 0.00 | 100 | 1009.6 |
| 20260510051525 | 57 | 54 | 0.0 | 0.0 | 0.00 | 0.00 | 0.00 | 100 | 1009.6 |
| 20260510050021 | 57 | 54 | 0.0 | 0.0 | 0.00 | 0.00 | 0.00 | 100 | 1009.6 |
| 20260510044527 | 58 | 54 | 0.0 | 0.0 | 0.00 | 0.00 | 0.00 | 100 | 1009.7 |
| 20260510043012 | 58 | 54 | 0.0 | 0.0 | 0.00 | 0.00 | 0.00 | 100 | 1009.7 |
| 20260510041512 | 59 | 54 | 0.0 | 0.0 | 0.00 | 0.00 | 0.00 | 100 | 1009.7 |
| 20260510040004 | 59 | 54 | 0.0 | 0.0 | 0.00 | 0.00 | 0.00 | 100 | 1009.6 |
| 20260510034601 | 59 | 54 | 0.0 | 0.0 | 0.00 | 0.00 | 0.00 | 100 | 1009.6 |
| 20260510033132 | 60 | 54 | 0.0 | 0.0 | 0.00 | 0.00 | 0.00 | 100 | 1009.6 |
| 20260510031603 | 60 | 54 | 0.0 | 0.0 | 0.00 | 0.00 | 0.00 | 100 | 1009.5 |
| 20260510030048 | 60 | 54 | 0.0 | 0.0 | 0.00 | 0.00 | 0.00 | 100 | 1009.5 |
| 20260510024541 | 60 | 84 | 1.0 | 0.0 | 0.00 | 0.00 | 0.00 | 100 | 1009.4 |
| 20260510023037 | 61 | 63 | 1.0 | 0.0 | 0.00 | 0.00 | 0.00 | 100 | 1009.4 |
| 20260510021534 | 62 | 36 | 1.0 | 0.0 | 0.00 | 0.00 | 0.00 | 100 | 1009.2 |
| 20260510020029 | 62 | 73 | 1.0 | 0.0 | 0.00 | 0.00 | 0.00 | 100 | 1009.1 |
| 20260510014523 | 63 | 66 | 1.0 | 0.0 | 0.00 | 0.00 | 0.00 | 100 | 1009.2 |
| 20260510013021 | 63 | 52 | 1.0 | 0.0 | 0.00 | 0.00 | 0.00 | 100 | 1008.8 |
| 20260510011532 | 64 | 60 | 1.0 | 0.0 | 0.00 | 0.00 | 0.00 | 4 | 1008.5 |
| 20260510010011 | 64 | 68 | 2.0 | 0.0 | 0.00 | 0.00 | 0.00 | 9 | 1008.3 |
| 20260510004509 | 64 | 78 | 1.0 | 0.0 | 0.00 | 0.00 | 0.00 | 8 | 1008.2 |
| 20260510003004 | 65 | 78 | 0.0 | 0.0 | 0.00 | 0.00 | 0.00 | 20 | 1008.1 |
| 20260510001502 | 66 | 81 | 1.0 | 0.0 | 0.00 | 0.00 | 0.00 | 31 | 1007.9 |
| 20260510000108 | 66 | 104 | 0.0 | 0.0 | 0.00 | 0.00 | 0.00 | 34 | 1007.8 |
| 20260509234601 | 68 | 84 | 0.0 | 0.0 | 0.00 | 0.00 | 0.00 | 46 | 1007.7 |
| 20260509233055 | 68 | 84 | 1.0 | 0.0 | 0.00 | 0.00 | 0.00 | 51 | 1007.6 |
| 20260509231554 | 68 | 71 | 1.0 | 0.0 | 0.00 | 0.00 | 0.00 | 54 | 1007.4 |
| 20260509230054 | 69 | 74 | 2.0 | 0.0 | 0.00 | 0.00 | 0.00 | 58 | 1007.5 |
| 20260509224553 | 69 | 42 | 3.0 | 0.0 | 0.00 | 0.00 | 0.00 | 59 | 1007.3 |
| 20260509223101 | 70 | 48 | 3.0 | 0.0 | 0.00 | 0.00 | 0.00 | 60 | 1007.5 |
| 20260509221552 | 71 | 82 | 2.0 | 0.0 | 0.00 | 0.00 | 0.00 | 61 | 1007.5 |
| 20260509220051 | 72 | 138 | 3.0 | 0.0 | 0.00 | 0.00 | 0.00 | 61 | 1007.4 |
| 20260509214550 | 73 | 89 | 3.0 | 0.0 | 0.00 | 0.00 | 0.00 | 61 | 1007.3 |
| 20260509213049 | 71 | 238 | 2.0 | 0.0 | 0.00 | 0.00 | 0.00 | 59 | 1007.3 |
| 20260509211548 | 72 | 90 | 1.0 | 0.0 | 0.00 | 0.00 | 0.00 | 61 | 1007.3 |
| 20260509210053 | 72 | 127 | 2.0 | 0.0 | 0.00 | 0.00 | 0.00 | 61 | 1007.4 |
| 20260509204552 | 71 | 198 | 3.0 | 0.0 | 0.00 | 0.00 | 0.00 | 61 | 1007.2 |
| 20260509203045 | 70 | 219 | 2.0 | 0.0 | 0.00 | 0.00 | 0.00 | 61 | 1007.3 |
| 20260509201546 | 70 | 196 | 4.0 | 0.0 | 0.00 | 0.00 | 0.00 | 61 | 1007.4 |
| 20260509200057 | 71 | 163 | 3.0 | 0.0 | 0.00 | 0.00 | 0.00 | 60 | 1007.7 |
| 20260509194539 | 70 | 163 | 2.0 | 0.0 | 0.00 | 0.00 | 0.00 | 61 | 1008.1 |
| 20260509193035 | 70 | 150 | 2.0 | 0.0 | 0.00 | 0.00 | 0.00 | 61 | 1008.3 |
| 20260509191534 | 68 | 196 | 2.0 | 0.0 | 0.00 | 0.00 | 0.00 | 61 | 1008.4 |
| 20260509190035 | 68 | 77 | 1.0 | 0.0 | 0.00 | 0.00 | 0.00 | 60 | 1008.5 |
| 20260509184541 | 68 | 63 | 1.0 | 0.0 | 0.00 | 0.00 | 0.00 | 56 | 1008.6 |
| 20260509183031 | 68 | 228 | 1.0 | 0.0 | 0.00 | 0.00 | 0.00 | 62 | 1008.8 |
| 20260509181525 | 68 | 257 | 1.0 | 0.0 | 0.00 | 0.00 | 0.00 | 62 | 1008.9 |
| 20260509180023 | 68 | 236 | 2.0 | 0.0 | 0.00 | 0.00 | 0.00 | 61 | 1009.4 |
| 20260509174522 | 68 | 233 | 4.0 | 0.0 | 0.00 | 0.00 | 0.00 | 61 | 1009.4 |
| 20260509173021 | 68 | 184 | 2.0 | 0.0 | 0.00 | 0.00 | 0.00 | 61 | 1009.4 |
| 20260509171520 | 67 | 166 | 4.0 | 0.0 | 0.00 | 0.00 | 0.00 | 61 | 1009.6 |